Location: Cedar Brake
(32.2526°N, 97.8459°W)
Time: 20:30:00
(UTC+00:00)

Cosmos 2322 Rocket - Pass Details

Date: 22 April 2026
Orbit: 832 x 850 km, 71.0° (Epoch: 21 May)

Event Time Altitude Azimuth Distance (km) Brightness Sun altitude
Rises 09:34:43 0° 337° (NNW) 3,392 5.5 -27.3°
Reaches altitude 10° 09:37:10 10° 336° (NNW) 2,457 4.7 -26.9°
Maximum altitude 09:42:47 75° 252° (WSW) 874 2.0 -25.9°
Enters shadow 09:42:58 74° 234° (SW) 877 2.0 -25.9°
